Date String (YYYY-MM-DD hh:mm:ss) UTC,Instrument flags,absolute air pressure of the measurement (hPa),sample flow rate (lpm),inlet stack bypass flow (lpm),air temperature of the measurement (°C),ambient temperature measured by the external sensor (°C),aerosol sample conditioner tube jacket temperature (°C),OPC LED temperature (°C),internal box temperature (°C),relative humidity of the measurement (%),span deviation,mass concentration of particles derived from Lorenz-Mie calculation of OPC scattering (μg/m³),mass concentration of particles derived from Lorenz-Mie calculation of OPC scattering (μg/m³),mass concentration of particles derived from Lorenz-Mie calculation of OPC scattering (μg/m³)
DateTimeUTC,F1_M11,P_M11,Q1_M11,Q2_M11,T1_M11,T2_M11,T3_M11,T4_M11,T5_M11,U1_M11,ZSPAN_M11,X0_M11,X2_M11,X1_M11
2023-10-08 10:00:00,SystemResetWarning,0833.7,5.00,000.00,028.3,026.7,000.0,036.8,029.9,13.8,0000.0,0009.41,0003.07,0002.60
2023-10-08 10:01:00,SystemResetWarning,0833.8,5.00,000.00,028.3,026.7,000.0,036.8,029.9,13.8,0000.0,0009.37,0003.03,0002.59
2023-10-08 10:02:00,SystemResetWarning,0833.8,5.00,000.00,028.3,026.7,000.0,036.8,029.9,13.8,0000.0,0009.25,0003.00,0002.59
2023-10-08 10:03:00,SystemResetWarning,0833.8,5.00,000.00,028.3,026.7,000.0,036.8,029.9,13.9,0000.0,0008.86,0002.97,0002.59
2023-10-08 10:04:00,SystemResetWarning,0833.8,5.00,000.00,028.3,026.7,000.0,036.8,029.9,13.8,0000.0,0009.19,0003.02,0002.60
2023-10-08 10:05:00,SystemResetWarning,0833.8,5.01,000.00,028.3,026.7,000.0,036.8,029.9,13.8,0000.0,0008.74,0003.02,0002.60
2023-10-08 10:06:00,SystemResetWarning,0833.8,5.00,000.00,028.3,026.7,000.0,036.7,029.9,13.8,0000.0,0007.83,0003.05,0002.60
2023-10-08 10:07:00,SystemResetWarning,0833.8,5.00,000.00,028.3,026.7,000.0,036.8,029.9,13.8,0000.0,0007.76,0003.10,0002.61
2023-10-08 10:08:00,SystemResetWarning,0833.8,4.99,000.00,028.2,026.7,000.0,036.7,029.9,13.8,0000.0,0007.73,0003.08,0002.61
2023-10-08 10:09:00,SystemResetWarning,0833.8,5.00,000.00,028.2,026.7,000.0,036.7,029.8,13.7,0000.0,0008.51,0003.05,0002.59
2023-10-08 10:10:00,SystemResetWarning,0833.8,5.00,000.00,028.2,026.7,000.0,036.7,029.9,13.7,0000.0,0007.82,0003.01,0002.57
2023-10-08 10:11:00,SystemResetWarning,0833.8,5.00,000.00,028.2,026.7,000.0,036.7,029.8,13.6,0000.0,0007.77,0003.03,0002.59
2023-10-08 10:12:00,SystemResetWarning,0833.8,5.00,000.00,028.2,026.7,000.0,036.7,029.8,13.6,0000.0,0007.69,0003.03,0002.58
2023-10-08 10:13:00,SystemResetWarning,0833.8,5.00,000.00,028.2,026.7,000.0,036.7,029.9,13.6,0000.0,0007.65,0003.05,0002.58
2023-10-08 10:14:00,SystemResetWarning,0833.8,5.00,000.00,028.2,026.7,000.0,036.7,029.9,13.7,0000.0,0007.67,0003.05,0002.58
2023-10-08 10:15:00,SystemResetWarning,0833.8,5.00,000.00,028.2,026.7,000.0,036.7,029.9,13.8,0000.0,0006.90,0003.05,0002.57
2023-10-08 10:16:00,SystemResetWarning,0833.8,5.00,000.00,028.2,026.7,000.0,036.7,029.8,13.7,0000.0,0006.76,0003.08,0002.58
2023-10-08 10:17:00,SystemResetWarning,0833.8,5.00,000.00,028.2,026.7,000.0,036.7,029.8,13.7,0000.0,0006.80,0003.08,0002.58
2023-10-08 10:18:00,SystemResetWarning,0833.8,5.00,000.00,028.2,026.7,000.0,036.7,029.8,13.6,0000.0,0006.70,0003.05,0002.57
2023-10-08 10:19:00,SystemResetWarning,0833.8,5.00,000.00,028.2,026.6,000.0,036.7,029.8,13.6,0000.0,0006.51,0003.07,0002.57
2023-10-08 10:20:00,SystemResetWarning,0833.8,4.99,000.00,028.2,026.7,000.0,036.7,029.8,13.6,0000.0,0004.86,0003.06,0002.57
2023-10-08 10:21:00,SystemResetWarning,0833.8,4.99,000.00,028.2,026.7,000.0,036.7,029.8,13.5,0000.0,0004.92,0003.11,0002.59
2023-10-08 10:22:00,SystemResetWarning,0833.8,5.00,000.00,028.2,026.7,000.0,036.7,029.8,13.5,0000.0,0005.39,0003.11,0002.58
2023-10-08 10:23:00,SystemResetWarning,0833.8,5.00,000.00,028.2,026.7,000.0,036.7,029.8,13.5,0000.0,0005.38,0003.10,0002.59
2023-10-08 10:24:00,SystemResetWarning,0833.8,5.00,000.00,028.2,026.7,000.0,036.7,029.8,13.5,0000.0,0005.39,0003.10,0002.60
2023-10-08 10:25:00,SystemResetWarning,0833.8,5.01,000.00,028.2,026.7,000.0,036.7,029.8,13.5,0000.0,0005.45,0003.11,0002.60
2023-10-08 10:26:00,SystemResetWarning,0833.8,5.01,000.00,028.2,026.7,000.0,036.7,029.8,13.5,0000.0,0005.45,0003.12,0002.61
2023-10-08 10:27:00,SystemResetWarning,0833.8,5.00,000.00,028.2,026.7,000.0,036.7,029.8,13.5,0000.0,0005.36,0003.12,0002.62
2023-10-08 10:28:00,SystemResetWarning,0833.8,4.99,000.00,028.2,026.7,000.0,036.7,029.8,13.5,0000.0,0005.55,0003.12,0002.63
2023-10-08 10:29:00,SystemResetWarning,0833.8,4.99,000.00,028.2,026.7,000.0,036.7,029.8,13.6,0000.0,0005.80,0003.13,0002.65
2023-10-08 10:30:00,SystemResetWarning,0833.9,5.00,000.00,028.2,026.7,000.0,036.7,029.8,13.6,0000.0,0006.39,0003.14,0002.68
2023-10-08 10:31:00,SystemResetWarning,0833.9,5.00,000.00,028.2,026.7,000.0,036.7,029.8,13.6,0000.0,0006.77,0003.19,0002.70
2023-10-08 10:32:00,SystemResetWarning,0833.9,5.00,000.00,028.2,026.7,000.0,036.7,029.8,13.5,0000.0,0006.86,0003.20,0002.73
2023-10-08 10:33:00,SystemResetWarning,0833.9,5.00,000.00,028.2,026.7,000.0,036.7,029.8,13.5,0000.0,0006.51,0003.21,0002.75
2023-10-08 10:34:00,SystemResetWarning,0833.9,5.00,000.00,028.2,026.7,000.0,036.7,029.8,13.5,0000.0,0006.40,0003.22,0002.77
2023-10-08 10:35:00,SystemResetWarning,0833.9,5.00,000.00,028.2,026.7,000.0,036.7,029.9,13.5,0000.0,0006.79,0003.24,0002.81
2023-10-08 10:36:00,SystemResetWarning,0833.8,5.01,000.00,028.2,026.7,000.0,036.7,029.9,13.5,0000.0,0007.77,0003.28,0002.87
2023-10-08 10:37:00,SystemResetWarning,0833.9,5.00,000.00,028.2,026.7,000.0,036.7,029.8,13.5,0000.0,0008.60,0003.31,0002.91
2023-10-08 10:38:00,SystemResetWarning,0833.9,5.00,000.00,028.2,026.7,000.0,036.7,029.9,13.5,0000.0,0008.64,0003.34,0002.95
2023-10-08 10:39:00,SystemResetWarning,0834.0,5.00,000.00,028.2,026.7,000.0,036.7,029.9,13.5,0000.0,0008.65,0003.39,0002.99
2023-10-08 10:40:00,SystemResetWarning,0833.9,4.99,000.00,028.2,026.7,000.0,036.7,029.9,13.5,0000.0,0008.48,0003.40,0003.02
2023-10-08 10:41:00,SystemResetWarning,0833.8,4.99,000.00,028.2,026.7,000.0,036.7,029.9,13.5,0000.0,0008.47,0003.42,0003.06
2023-10-08 10:42:00,SystemResetWarning,0833.8,5.00,000.00,028.2,026.7,000.0,036.7,029.9,13.5,0000.0,0008.54,0003.41,0003.09
2023-10-08 10:43:00,SystemResetWarning,0833.9,5.00,000.00,028.2,026.8,000.0,036.7,029.9,13.5,0000.0,0008.93,0003.46,0003.11
2023-10-08 10:44:00,SystemResetWarning,0833.9,5.00,000.00,028.2,026.8,000.0,036.7,029.9,13.6,0000.0,0009.55,0003.51,0003.12
2023-10-08 10:45:00,SystemResetWarning,0833.9,5.00,000.00,028.2,026.8,000.0,036.7,029.9,13.6,0000.0,0009.94,0003.57,0003.14
2023-10-08 10:46:00,SystemResetWarning,0833.9,5.00,000.00,028.2,026.7,000.0,036.7,029.9,13.6,0000.0,0009.88,0003.59,0003.14
2023-10-08 10:47:00,SystemResetWarning,0833.9,5.01,000.00,028.2,026.7,000.0,036.7,029.9,13.5,0000.0,0010.28,0003.60,0003.14
2023-10-08 10:48:00,SystemResetWarning,0834.0,5.00,000.00,028.2,026.7,000.0,036.7,029.8,13.5,0000.0,0009.37,0003.57,0003.14
2023-10-08 10:49:00,SystemResetWarning,0833.9,5.00,000.00,028.2,026.7,000.0,036.7,029.9,13.6,0000.0,0009.42,0003.57,0003.13
2023-10-08 10:50:00,SystemResetWarning,0834.0,5.00,000.00,028.2,026.7,000.0,036.7,029.9,13.6,0000.0,0009.39,0003.56,0003.13
2023-10-08 10:51:00,SystemResetWarning,0834.0,4.99,000.00,028.2,026.7,000.0,036.7,029.9,13.6,0000.0,0010.03,0003.60,0003.14
2023-10-08 10:52:00,SystemResetWarning,0834.0,4.99,000.00,028.2,026.7,000.0,036.7,029.9,13.6,0000.0,0010.37,0003.61,0003.14
2023-10-08 10:53:00,SystemResetWarning,0834.0,5.00,000.00,028.2,026.7,000.0,036.7,029.8,13.5,0000.0,0010.11,0003.61,0003.15
2023-10-08 10:54:00,SystemResetWarning,0834.0,5.00,000.00,028.2,026.7,000.0,036.7,029.9,13.5,0000.0,0010.33,0003.59,0003.14
2023-10-08 10:55:00,SystemResetWarning,0834.0,5.00,000.00,028.2,026.7,000.0,036.7,029.9,13.5,0000.0,0009.85,0003.55,0003.14
2023-10-08 10:56:00,SystemResetWarning,0834.0,5.00,000.00,028.2,026.7,000.0,036.7,029.9,13.5,0000.0,0009.79,0003.55,0003.14
2023-10-08 10:57:00,SystemResetWarning,0834.0,5.00,000.00,028.2,026.7,000.0,036.7,029.9,13.4,0000.0,0010.05,0003.54,0003.13
2023-10-08 10:58:00,SystemResetWarning,0834.0,5.01,000.00,028.2,026.8,000.0,036.7,029.9,13.4,0000.0,0009.49,0003.53,0003.13
2023-10-08 10:59:00,SystemResetWarning,0834.0,5.00,000.00,028.2,026.8,000.0,036.7,029.9,13.4,0000.0,0008.99,0003.51,0003.13
